Visibility
0.1 0.1 1.3 3.5 5.1 4.4 0.8 0.2 0.2 0.1 0.1 4.6 15.0 14.4 11.6 0.4 0.2 9.7 6.5 2.8 14.8 15.0
0.1 0.1 0.1 0.1 0.3 1.6 0.9 2.2 13.4 12.2 0.4 0.1 0.1 12.2 12.8 13.5 0.4 0.8 0.8 0.5 8.6 6.0
0.1 0.1 0.1 0.1 0.1 0.1 0.2 0.1 0.3 0.8 12.9 12.0 0.6 0.1 0.5 0.2 0.1 0.2 0.4 1.2 1.7 3.6
0.1 0.1 0.1 0.1 0.1 0.1 0.2 0.3 0.1 0.3 2.0 14.5 14.9 2.8 7.6 11.7 2.4 0.2 0.1 0.1 0.1 0.1
0.1 0.1 0.1 0.1 0.1 0.1 0.1 0.1 0.1 0.1 0.2 0.1 0.3 1.7 13.1 6.3 15.0 14.3 4.6 1.6 0.8 0.3
0.1 0.1 0.1 0.1 0.1 0.1 0.1 0.1 0.1 0.3 0.1 0.1 0.1 0.2 1.7 13.5 1.4 0.7 0.7 1.0 5.2 1.4
0.1 0.1 0.1 0.1 0.1 0.1 0.1 0.2 0.2 0.1 0.2 5.1 1.6 0.2 0.1 0.8 6.6 8.4 3.3 7.6 14.8 15.0
12.8 3.4 0.1 0.1 0.1 0.1 0.1 0.2 0.2 0.4 0.3 0.2 4.8 13.6 4.8 0.9 0.3 0.2 0.2 1.5 0.3 0.1
15.0 15.0 15.0 7.4 2.3 1.8 1.3 0.6 15.0 8.9 0.5 0.1 0.1 2.9 12.6 15.0 15.0 15.0 15.0 15.0 15.0 15.0
9.2 15.0 15.0 15.0 15.0 15.0 15.0 15.0 15.0 15.0 15.0 10.4 0.2 7.0 14.5 15.0 15.0 15.0 15.0 15.0 15.0 15.0
6.2 11.3 15.0 15.0 15.0 15.0 15.0 15.0 15.0 15.0 15.0 15.0 15.0 11.3 15.0 15.0 15.0 15.0 15.0 15.0 15.0 15.0
7.7 6.8 15.0 15.0 15.0 15.0 15.0 15.0 15.0 15.0 15.0 15.0 15.0 15.0 15.0 15.0 15.0 15.0 15.0 15.0 15.0 15.0
14.3 15.0 15.0 15.0 15.0 15.0 15.0 15.0 15.0 15.0 15.0 15.0 15.0 15.0 15.0 15.0 15.0 15.0 15.0 15.0 15.0 15.0
15.0 15.0 15.0 15.0 15.0 15.0 15.0 15.0 15.0 15.0 15.0 15.0 15.0 15.0 15.0 15.0 15.0 15.0 15.0 15.0 15.0 15.0